Time,TemperatureF,DewpointF,PressureIn,WindDirection,WindDirectionDegrees,WindSpeedMPH,WindSpeedGustMPH,Humidity,HourlyPrecipIn,Conditions,Clouds,dailyrainin,SoftwareType,DateUTC
2013-04-29 00:02:00,56.0,44.0,-100.00,ESE,105,0.0,0.0,65,-99.99,,,-99.99,,2013-04-29 05:02:00,
2013-04-29 00:32:00,58.0,43.0,-100.00,SSW,200,0.0,0.0,56,-99.99,,,-99.99,,2013-04-29 05:32:00,
2013-04-29 00:42:00,58.0,43.0,-100.00,SSW,200,0.0,0.0,56,-99.99,,,-99.99,,2013-04-29 05:42:00,
2013-04-29 00:52:00,58.0,43.0,-100.00,SSW,200,0.0,0.0,56,-99.99,,,-99.99,,2013-04-29 05:52:00,
2013-04-29 01:02:00,58.0,43.0,-100.00,SSW,200,0.0,0.0,56,-99.99,,,-99.99,,2013-04-29 06:02:00,
2013-04-29 01:11:00,58.0,43.0,-100.00,SSW,200,0.0,0.0,56,-99.99,,,-99.99,,2013-04-29 06:11:00,
2013-04-29 01:32:00,53.0,51.0,-100.00,East,95,0.0,0.0,90,-99.99,,,-99.99,,2013-04-29 06:32:00,
2013-04-29 01:42:00,53.0,51.0,-100.00,East,95,0.0,0.0,90,-99.99,,,-99.99,,2013-04-29 06:42:00,
2013-04-29 01:52:00,53.0,51.0,-100.00,East,95,0.0,0.0,90,-99.99,,,-99.99,,2013-04-29 06:52:00,
2013-04-29 02:01:00,53.0,51.0,-100.00,East,95,0.0,0.0,90,-99.99,,,-99.99,,2013-04-29 07:01:00,
2013-04-29 02:11:00,53.0,51.0,-100.00,East,95,0.0,0.0,90,-99.99,,,-99.99,,2013-04-29 07:11:00,
2013-04-29 02:32:00,52.0,51.0,-100.00,NNE,25,0.0,0.0,95,-99.99,,,-99.99,,2013-04-29 07:32:00,
2013-04-29 02:42:00,52.0,51.0,-100.00,NNE,25,0.0,0.0,95,-99.99,,,-99.99,,2013-04-29 07:42:00,
2013-04-29 02:52:00,52.0,51.0,-100.00,NNE,25,0.0,0.0,95,-99.99,,,-99.99,,2013-04-29 07:52:00,
2013-04-29 03:03:00,52.0,51.0,-100.00,NNE,25,0.0,0.0,95,-99.99,,,-99.99,,2013-04-29 08:03:00,
2013-04-29 03:11:00,52.0,51.0,-100.00,NNE,25,0.0,0.0,95,-99.99,,,-99.99,,2013-04-29 08:11:00,
2013-04-29 03:32:00,53.0,52.0,-100.00,South,185,0.0,0.0,96,-99.99,,,-99.99,,2013-04-29 08:32:00,
2013-04-29 03:42:00,53.0,52.0,-100.00,South,185,0.0,0.0,96,-99.99,,,-99.99,,2013-04-29 08:42:00,
2013-04-29 03:52:00,53.0,52.0,-100.00,South,185,0.0,0.0,96,-99.99,,,-99.99,,2013-04-29 08:52:00,
2013-04-29 04:01:00,53.0,52.0,-100.00,South,185,0.0,0.0,96,-99.99,,,-99.99,,2013-04-29 09:01:00,
2013-04-29 04:12:00,53.0,52.0,-100.00,South,185,0.0,0.0,96,-99.99,,,-99.99,,2013-04-29 09:12:00,
2013-04-29 04:33:00,53.0,52.0,-100.00,SSE,150,0.0,0.0,96,-99.99,,,-99.99,,2013-04-29 09:33:00,
2013-04-29 04:42:00,53.0,52.0,-100.00,SSE,150,0.0,0.0,96,-99.99,,,-99.99,,2013-04-29 09:42:00,
2013-04-29 04:53:00,53.0,52.0,-100.00,SSE,150,0.0,0.0,96,-99.99,,,-99.99,,2013-04-29 09:53:00,
2013-04-29 05:02:00,53.0,52.0,-100.00,SSE,150,0.0,0.0,96,-99.99,,,-99.99,,2013-04-29 10:02:00,
2013-04-29 05:12:00,53.0,52.0,-100.00,SSE,150,0.0,0.0,96,-99.99,,,-99.99,,2013-04-29 10:12:00,
2013-04-29 05:32:00,52.0,51.0,-100.00,NNW,340,0.0,0.0,96,-99.99,,,-99.99,,2013-04-29 10:32:00,
2013-04-29 05:42:00,52.0,51.0,-100.00,NNW,340,0.0,0.0,96,-99.99,,,-99.99,,2013-04-29 10:42:00,
2013-04-29 05:52:00,52.0,51.0,-100.00,NNW,340,0.0,0.0,96,-99.99,,,-99.99,,2013-04-29 10:52:00,
2013-04-29 06:02:00,52.0,51.0,-100.00,NNW,340,0.0,0.0,96,-99.99,,,-99.99,,2013-04-29 11:02:00,
2013-04-29 06:12:00,52.0,51.0,-100.00,NNW,340,0.0,0.0,96,-99.99,,,-99.99,,2013-04-29 11:12:00,
2013-04-29 06:32:00,52.0,51.0,-100.00,SW,230,0.0,0.0,96,-99.99,,,-99.99,,2013-04-29 11:32:00,
2013-04-29 06:42:00,52.0,51.0,-100.00,SW,230,0.0,0.0,96,-99.99,,,-99.99,,2013-04-29 11:42:00,
2013-04-29 06:52:00,52.0,51.0,-100.00,SW,230,0.0,0.0,96,-99.99,,,-99.99,,2013-04-29 11:52:00,
2013-04-29 07:01:00,52.0,51.0,-100.00,SW,230,0.0,0.0,96,-99.99,,,-99.99,,2013-04-29 12:01:00,
2013-04-29 07:32:00,53.0,52.0,-100.00,South,190,0.0,0.0,96,-99.99,,,-99.99,,2013-04-29 12:32:00,
2013-04-29 07:42:00,53.0,52.0,-100.00,South,190,0.0,0.0,96,-99.99,,,-99.99,,2013-04-29 12:42:00,
2013-04-29 07:52:00,53.0,52.0,-100.00,South,190,0.0,0.0,96,-99.99,,,-99.99,,2013-04-29 12:52:00,
2013-04-29 08:01:00,53.0,52.0,-100.00,South,190,0.0,0.0,96,-99.99,,,-99.99,,2013-04-29 13:01:00,
2013-04-29 08:11:00,53.0,52.0,-100.00,South,190,0.0,0.0,96,-99.99,,,-99.99,,2013-04-29 13:11:00,
2013-04-29 08:32:00,55.0,54.0,-100.00,West,280,0.0,0.0,96,-99.99,,,-99.99,,2013-04-29 13:32:00,
2013-04-29 08:42:00,55.0,54.0,-100.00,West,280,0.0,0.0,96,-99.99,,,-99.99,,2013-04-29 13:42:00,
2013-04-29 08:52:00,55.0,54.0,-100.00,West,280,0.0,0.0,96,-99.99,,,-99.99,,2013-04-29 13:52:00,
2013-04-29 09:02:00,55.0,54.0,-100.00,West,280,0.0,0.0,96,-99.99,,,-99.99,,2013-04-29 14:02:00,
2013-04-29 09:11:00,55.0,54.0,-100.00,West,280,0.0,0.0,96,-99.99,,,-99.99,,2013-04-29 14:11:00,
2013-04-29 10:33:00,57.0,55.0,-100.00,ESE,105,0.0,0.0,94,-99.99,,,-99.99,,2013-04-29 15:33:00,
2013-04-29 10:43:00,57.0,55.0,-100.00,ESE,105,0.0,0.0,94,-99.99,,,-99.99,,2013-04-29 15:43:00,
2013-04-29 10:53:00,57.0,55.0,-100.00,ESE,105,0.0,0.0,94,-99.99,,,-99.99,,2013-04-29 15:53:00,
2013-04-29 11:02:00,57.0,55.0,-100.00,ESE,105,0.0,0.0,94,-99.99,,,-99.99,,2013-04-29 16:02:00,
2013-04-29 11:12:00,57.0,55.0,-100.00,ESE,105,0.0,0.0,94,-99.99,,,-99.99,,2013-04-29 16:12:00,
2013-04-29 11:33:00,59.0,56.0,-100.00,NNE,20,0.0,0.0,89,-99.99,,,-99.99,,2013-04-29 16:33:00,
2013-04-29 11:42:00,59.0,56.0,-100.00,NNE,20,0.0,0.0,89,-99.99,,,-99.99,,2013-04-29 16:42:00,
2013-04-29 11:52:00,59.0,56.0,-100.00,NNE,20,0.0,0.0,89,-99.99,,,-99.99,,2013-04-29 16:52:00,
2013-04-29 12:02:00,59.0,56.0,-100.00,NNE,20,0.0,0.0,89,-99.99,,,-99.99,,2013-04-29 17:02:00,
2013-04-29 12:12:00,59.0,56.0,-100.00,NNE,20,0.0,0.0,89,-99.99,,,-99.99,,2013-04-29 17:12:00,
2013-04-29 12:13:00,65.0,56.0,-100.00,SW,215,0.0,0.0,72,-99.99,,,-99.99,,2013-04-29 17:13:00,
2013-04-29 12:32:00,65.0,56.0,-100.00,SW,215,0.0,0.0,72,-99.99,,,-99.99,,2013-04-29 17:32:00,
2013-04-29 12:42:00,65.0,56.0,-100.00,SW,215,0.0,0.0,72,-99.99,,,-99.99,,2013-04-29 17:42:00,
2013-04-29 12:52:00,65.0,56.0,-100.00,SW,215,0.0,0.0,72,-99.99,,,-99.99,,2013-04-29 17:52:00,
2013-04-29 13:01:00,65.0,56.0,-100.00,SW,215,0.0,0.0,72,-99.99,,,-99.99,,2013-04-29 18:01:00,
2013-04-29 13:32:00,67.0,55.0,-100.00,SSW,205,0.0,0.0,63,-99.99,,,-99.99,,2013-04-29 18:32:00,
2013-04-29 13:42:00,67.0,55.0,-100.00,SSW,205,0.0,0.0,63,-99.99,,,-99.99,,2013-04-29 18:42:00,
2013-04-29 13:52:00,67.0,55.0,-100.00,SSW,205,0.0,0.0,63,-99.99,,,-99.99,,2013-04-29 18:52:00,
2013-04-29 14:01:00,67.0,55.0,-100.00,SSW,205,0.0,0.0,63,-99.99,,,-99.99,,2013-04-29 19:01:00,
2013-04-29 14:11:00,67.0,55.0,-100.00,SSW,205,0.0,0.0,63,-99.99,,,-99.99,,2013-04-29 19:11:00,
2013-04-29 14:32:00,69.0,51.0,-100.00,SW,215,0.0,0.0,52,-99.99,,,-99.99,,2013-04-29 19:32:00,
2013-04-29 14:42:00,69.0,51.0,-100.00,SW,215,0.0,0.0,52,-99.99,,,-99.99,,2013-04-29 19:42:00,
2013-04-29 14:52:00,69.0,51.0,-100.00,SW,215,0.0,0.0,52,-99.99,,,-99.99,,2013-04-29 19:52:00,
2013-04-29 15:02:00,69.0,51.0,-100.00,SW,215,0.0,0.0,52,-99.99,,,-99.99,,2013-04-29 20:02:00,
2013-04-29 15:11:00,69.0,51.0,-100.00,SW,215,0.0,0.0,52,-99.99,,,-99.99,,2013-04-29 20:11:00,
2013-04-29 15:32:00,70.0,51.0,-100.00,South,190,0.0,0.0,51,-99.99,,,-99.99,,2013-04-29 20:32:00,
2013-04-29 15:42:00,70.0,51.0,-100.00,South,190,0.0,0.0,51,-99.99,,,-99.99,,2013-04-29 20:42:00,
2013-04-29 15:52:00,70.0,51.0,-100.00,South,190,0.0,0.0,51,-99.99,,,-99.99,,2013-04-29 20:52:00,
2013-04-29 16:01:00,70.0,51.0,-100.00,South,190,0.0,0.0,51,-99.99,,,-99.99,,2013-04-29 21:01:00,
2013-04-29 16:11:00,70.0,51.0,-100.00,South,190,0.0,0.0,51,-99.99,,,-99.99,,2013-04-29 21:11:00,
2013-04-29 16:13:00,69.0,49.0,-100.00,South,180,0.0,0.0,48,-99.99,,,-99.99,,2013-04-29 21:13:00,
2013-04-29 16:33:00,69.0,49.0,-100.00,South,180,0.0,0.0,48,-99.99,,,-99.99,,2013-04-29 21:33:00,
2013-04-29 16:43:00,69.0,49.0,-100.00,South,180,0.0,0.0,48,-99.99,,,-99.99,,2013-04-29 21:43:00,
2013-04-29 16:53:00,69.0,49.0,-100.00,South,180,0.0,0.0,48,-99.99,,,-99.99,,2013-04-29 21:53:00,
2013-04-29 17:02:00,69.0,49.0,-100.00,South,180,0.0,0.0,48,-99.99,,,-99.99,,2013-04-29 22:02:00,
2013-04-29 17:32:00,69.0,50.0,-100.00,South,190,0.0,0.0,50,-99.99,,,-99.99,,2013-04-29 22:32:00,
2013-04-29 17:42:00,69.0,50.0,-100.00,South,190,0.0,0.0,50,-99.99,,,-99.99,,2013-04-29 22:42:00,
2013-04-29 17:53:00,69.0,50.0,-100.00,South,190,0.0,0.0,50,-99.99,,,-99.99,,2013-04-29 22:53:00,
2013-04-29 18:02:00,69.0,50.0,-100.00,South,190,0.0,0.0,50,-99.99,,,-99.99,,2013-04-29 23:02:00,
2013-04-29 18:11:00,69.0,50.0,-100.00,South,190,0.0,0.0,50,-99.99,,,-99.99,,2013-04-29 23:11:00,
2013-04-29 18:32:00,68.0,52.0,-100.00,South,185,0.0,0.0,56,-99.99,,,-99.99,,2013-04-29 23:32:00,
2013-04-29 18:42:00,68.0,52.0,-100.00,South,185,0.0,0.0,56,-99.99,,,-99.99,,2013-04-29 23:42:00,
2013-04-29 18:52:00,68.0,52.0,-100.00,South,185,0.0,0.0,56,-99.99,,,-99.99,,2013-04-29 23:52:00,
2013-04-29 19:01:00,68.0,52.0,-100.00,South,185,0.0,0.0,56,-99.99,,,-99.99,,2013-04-30 00:01:00,
2013-04-29 19:11:00,68.0,52.0,-100.00,South,185,0.0,0.0,56,-99.99,,,-99.99,,2013-04-30 00:11:00,
2013-04-29 19:32:00,66.0,53.0,-100.00,SE,140,0.0,0.0,63,-99.99,,,-99.99,,2013-04-30 00:32:00,
2013-04-29 19:42:00,66.0,53.0,-100.00,SE,140,0.0,0.0,63,-99.99,,,-99.99,,2013-04-30 00:42:00,
2013-04-29 19:52:00,66.0,53.0,-100.00,SE,140,0.0,0.0,63,-99.99,,,-99.99,,2013-04-30 00:52:00,
2013-04-29 20:02:00,66.0,53.0,-100.00,SE,140,0.0,0.0,63,-99.99,,,-99.99,,2013-04-30 01:02:00,
2013-04-29 20:11:00,66.0,53.0,-100.00,SE,140,0.0,0.0,63,-99.99,,,-99.99,,2013-04-30 01:11:00,
2013-04-29 21:32:00,60.0,49.0,-100.00,SE,145,0.0,0.0,67,-99.99,,,-99.99,,2013-04-30 02:32:00,
2013-04-29 21:42:00,60.0,49.0,-100.00,SE,145,0.0,0.0,67,-99.99,,,-99.99,,2013-04-30 02:42:00,
2013-04-29 21:51:00,60.0,49.0,-100.00,SE,145,0.0,0.0,67,-99.99,,,-99.99,,2013-04-30 02:51:00,
2013-04-29 22:01:00,60.0,49.0,-100.00,SE,145,0.0,0.0,67,-99.99,,,-99.99,,2013-04-30 03:01:00,
2013-04-29 22:11:00,60.0,49.0,-100.00,SE,145,0.0,0.0,67,-99.99,,,-99.99,,2013-04-30 03:11:00,
2013-04-29 22:12:00,58.0,50.0,-100.00,SE,145,0.0,0.0,73,-99.99,,,-99.99,,2013-04-30 03:12:00,
2013-04-29 22:33:00,58.0,50.0,-100.00,SE,145,0.0,0.0,73,-99.99,,,-99.99,,2013-04-30 03:33:00,
2013-04-29 22:43:00,58.0,50.0,-100.00,SE,145,0.0,0.0,73,-99.99,,,-99.99,,2013-04-30 03:43:00,
2013-04-29 22:52:00,58.0,50.0,-100.00,SE,145,0.0,0.0,73,-99.99,,,-99.99,,2013-04-30 03:52:00,
2013-04-29 23:02:00,58.0,50.0,-100.00,SE,145,0.0,0.0,73,-99.99,,,-99.99,,2013-04-30 04:02:00,
2013-04-29 23:32:00,59.0,51.0,-100.00,ESE,120,0.0,0.0,75,-99.99,,,-99.99,,2013-04-30 04:32:00,
2013-04-29 23:42:00,59.0,51.0,-100.00,ESE,120,0.0,0.0,75,-99.99,,,-99.99,,2013-04-30 04:42:00,
2013-04-29 23:52:00,59.0,51.0,-100.00,ESE,120,0.0,0.0,75,-99.99,,,-99.99,,2013-04-30 04:52:00,